AirNav   Pilot Hours Calculator
 
 1220 users online  

39P Strom Field Airport
Morton, Washington, USA

GOING TO MORTON?


FAA INFORMATION EFFECTIVE 19 MAY 2022

Location

FAA Identifier: 39P
Lat/Long: 46-33-01.2990N 122-15-59.8530W
46-33.021650N 122-15.997550W
46.5503608,-122.2666258
(estimated)
Elevation: 941 ft. / 287 m (estimated)
Variation: 20E (1985)
Time zone: UTC -7 (UTC -8 during Standard Time)
Zip code: 98356

Airport Operations

Airport use: Open to the public
Activation date: 08/1964
Control tower: no
ARTCC: SEATTLE CENTER
FSS: SEATTLE FLIGHT SERVICE STATION
NOTAMs facility: SEA (NOTAM-D service available)
Attendance: UNATNDD
Wind indicator: lighted
Segmented circle: no
Lights: ACTVT MIRL RY 07/25 - CTAF.
Beacon: white-green (lighted land airport)
ACTVT ROTG BCN - CTAF.

Airport Communications

CTAF: 122.9

Nearby radio navigation aids

VOR radial/distance  VOR name  Freq  Var
OLMr115/36.3OLYMPIA VORTAC113.4019E

Airport Services

Parking: tiedowns
Airframe service: NONE
Powerplant service: NONE

Runway Information

Runway 7/25

Dimensions: 1810 x 40 ft. / 552 x 12 m
Surface: asphalt/L
WDSPR RAVELLING AND ALLIGATOR CRACKING.
Runway edge lights: medium intensity
Runway edge markings: MARKINGS FADED.
RUNWAY 7  RUNWAY 25
Latitude: 46-33.022283N46-33.021000N
Longitude: 122-16.213367W122-15.781733W
Traffic pattern: leftleft
Runway heading: 070 magnetic, 090 true250 magnetic, 270 true
Displaced threshold: 200 ft.no
Markings: basic, in poor conditionbasic, in poor condition
Obstructions: 50 ft. pline, 324 ft. from runway, 2:1 slope to clear
+3 FT FENCE AT 35 FT FM THR AND 32 FT R; GUARD RAIL AND ROAD 98 FT FM THR; 15 FT SIGN, 18 FT R, 65 FT FM THR; TREE, 51 FT HIGH, 2 FT R, 120 FT FM THR, 10 FT SIGN 84 FT L, 30 FT FM THR; FENCE 102 FT L, 15 FT FM THR; ROAD 120 FT L.
41 ft. trees, 1318 ft. from runway, 40 ft. both sides of centerline, 27:1 slope to clear
RWY 25 +2 FT ROAD AND GUARD RAIL AT 15 FT FM THR; TREE, 15 FT HIGH, 49 FT R, 74 FT FM THR; POLE, 4 FT HIGH, 79 FT R, 8 FT FM THR.

Airport Ownership and Management from official FAA records

Ownership: Publicly-owned
Owner: CITY OF MORTON
PO BOX 1089
MORTON, WA 98356
Phone 360-496-6881
Manager: ANDERS PULLMAN
PO BOX 1089, PO BOX 1089
MORTON, WA 98356
Phone (360) 496-5210
PUB. WKS. SUP.

Airport Operational Statistics

Aircraft based on the field: 6
Single engine airplanes: 4
Ultralights: 2
    
Aircraft operations: avg 22/day *
82% transient general aviation
18% local general aviation
<1% military
* for 12-month period ending 31 December 2020

Additional Remarks

TREES NEAR RWY.
TREES, STREAM, AND BRUSH IN PRIM SFC.
DEER AND ELK ON & INVOF RWY.
DITCH PARL RWY ON EASTSIDE.
FOR CD CTC SEATTLE ARTCC AT 253-351-3694.

Instrument Procedures

There are no published instrument procedures at 39P.

Some nearby airports with instrument procedures:

KTDO - Ed Carlson Memorial Field - South Lewis County Airport (23 nm W)
KCLS - Chehalis-Centralia Airport (30 nm W)
KPLU - Pierce County Airport - Thun Field (33 nm N)
KGRF - Gray Army Airfield (Joint Base Lewis-McChord) (34 nm N)
KOLM - Olympia Regional Airport (36 nm NW)
 
Loc | Ops | Rwys | IFR | FBO | Links
Com | Nav | Svcs | Stats | Notes
Area around 39P (Strom Field Airport)
 
Road maps at: MapQuest Bing Google
 
Aerial photo
WARNING: Photo may not be current or correct
Aerial photo of 39P (Strom Field Airport)
Photo taken 01-Sep-2012
looking west.

Do you have a better or more recent aerial photo of Strom Field Airport that you would like to share? If so, please send us your photo.

 
Sectional chart

 
Airport distance calculator
Flying to Strom Field Airport? Find the distance to fly.

From to 39P

Sunrise and sunset
Times for 20-May-2022
 Local
(UTC-7)
 Zulu
(UTC)
Morning civil twilight04:5411:54
Sunrise05:3012:30
Sunset20:4103:41
Evening civil twilight21:1704:17

Current date and time
Zulu (UTC)  20-May-2022 22:00:04
Local (UTC-7)  20-May-2022 15:00:04
 
METAR
KCLS 
30nm W 
202155Z AUTO 00000KT 10SM OVC060 15/06 A3023 RMK AO2
KPLU 
33nm N 
202135Z AUTO VRB03KT 10SM FEW036 OVC048 15/06 A3024 RMK AO2
KGRF 
33nm N 
202058Z AUTO 02007KT 10SM BKN044 14/04 A3023 RMK AO2 SLP242 T01420036 57010
KTCM 
35nm N 
202058Z AUTO 02010KT 10SM OVC041 14/05 A3024 RMK AO2 SLP245 T01420045 57011 $
KOLM 
36nm NW 
202154Z 03005KT 10SM CLR 16/04 A3023 RMK AO2 SLP237 T01610044
KKLS 
37nm SW 
202056Z AUTO 28003KT 10SM BKN046 OVC055 14/06 A3025 RMK AO2 SLP247 T01390056 58011
TAF
KGRF 
33nm N 
201300Z 2013/2119 VRB03KT 9999 SCT030 QNH3027INS BECMG 2014/2015 03005KT 9999 SCT050 QNH3026INS BECMG 2022/2023 03005KT 9999 FEW050 BKN080 620802 QNH3016INS TX16/2100Z TN04/2013Z
KTCM 
35nm N 
201302Z 2013/2119 VRB06KT 9999 BKN040 QNH3028INS BECMG 2017/2018 VRB06KT 9999 SCT050 QNH3026INS BECMG 2019/2020 33006KT 9999 SKC QNH3024INS BECMG 2110/2111 VRB04KT 9999 BKN015 QNH3018INS TX18/2023Z TN03/2013Z
KOLM 
36nm NW 
201735Z 2018/2118 VRB03KT P6SM SCT050 FM202100 35005KT P6SM SKC FM210600 VRB02KT P6SM SKC FM211200 21001KT P6SM BKN080
NOTAMs
Click for the latest NOTAMs
NOTAMs are issued by the DoD/FAA and will open in a separate window not controlled by AirNav.

 

 
 

Would you like to see your business listed on this page?

 If your business provides an interesting product or service to pilots, flight crews, aircraft, or users of the Strom Field Airport, you should consider listing it here.  To start the listing process, click on the button below
 
Add a business
 

Other Pages about Strom Field Airport

Update a link
 
Copyright © AirNav, LLC. All rights reserved. Privacy Policy  Contact